User: anonymous   Login
Location: Oshawa
(43.9000°N, 78.8670°W)
Time: 19:08:23
(UTC-05:00)
Language:

Iridium 98 - Orbit

View from above orbital plane
View from above orbital plane
View from above satellite
View from above satellite

Ground track
Ground track

The orbit data is extracted from the following two-line orbital elements,

1 27451U 02031B   14353.24445581  .00000684  00000-0  23712-3 0  6368
2 27451 086.3950 043.0236 0002073 108.8006 317.8353 14.34222705660737
Epoch (UTC): 19 December 2014 05:52:00
Eccentricity: 0.0002073
inclination: 86.3950°
perigee height: 776 km
apogee height: 779 km
right ascension of ascending node: 43.0236°
argument of perigee: 108.8006°
revolutions per day: 14.34222705
mean anomaly at epoch: 317.8353°
orbit number at epoch: 66073

The dashed part of the orbit path shows where the satellite is in the earth's shadow,  

DLR